Check out our new BloomSky Weather System.

Active alerts


No alerts


Thunder radar  blitzortung!


Rain radar more information rain snow radar


Visit our other weather sites:

Template documentation
and downloads

And another site



Weather Underground History page Text

Daily Summary for October 26, 2017 Units:  English    Metric   Both
« Previous Day
Next Day »
Daily Weekly Monthly Yearly Custom
  High: Low: Average:
Temperature: 82.4 °F 48.0 °F 66.4 °F
Dew Point: 59.4 °F 45.5 °F 52.9 °F
Humidity: 96 % 39 % 65 %
Wind Speed: 14.0 mph 0.0 mph 2.9 mph
Wind Gust: 20.0 mph - -
Wind:- - South
Pressure: 30.02 in 29.79 in -
Precipitation: 0.00 in    
Historical Graphs
 
 
Tabular Data for October 26, 2017
Time Temperature Dew Point Pressure Wind Wind Speed Wind Gust Humidity Rainfall Rate (Hourly)
00:04 56.1 °F 45.7 °F 30.02 in SSE 1.0 mph 2.0 mph 68 % 0.00 in
00:09 56.8 °F 45.7 °F 30.02 in Calm   2.0 mph 66 % 0.00 in
00:14 57.6 °F 46.2 °F 30.02 in Calm   3.0 mph 66 % 0.00 in
00:19 57.4 °F 46.0 °F 30.02 in Calm   3.0 mph 66 % 0.00 in
00:24 56.8 °F 45.7 °F 30.02 in Calm   3.0 mph 66 % 0.00 in
00:29 56.5 °F 45.7 °F 30.02 in Calm     67 % 0.00 in
00:34 56.3 °F 45.5 °F 30.01 in Calm   1.0 mph 67 % 0.00 in
00:39 56.5 °F 46.0 °F 30.01 in Calm   1.0 mph 68 % 0.00 in
00:44 56.1 °F 46.0 °F 30.01 in Calm   1.0 mph 69 % 0.00 in
00:49 55.6 °F 46.0 °F 30.01 in Calm   1.0 mph 70 % 0.00 in
00:54 55.2 °F 45.7 °F 30.01 in Calm     70 % 0.00 in
00:59 55.4 °F 45.9 °F 30.01 in Calm   1.0 mph 70 % 0.00 in
01:04 55.6 °F 46.0 °F 30.01 in Calm   1.0 mph 70 % 0.00 in
01:09 55.6 °F 46.0 °F 30.01 in Calm   1.0 mph 70 % 0.00 in
01:14 55.2 °F 45.7 °F 30.01 in Calm   1.0 mph 70 % 0.00 in
01:18 55.2 °F 45.7 °F 30.00 in Calm   1.0 mph 70 % 0.00 in
01:24 55.0 °F 45.9 °F 30.00 in Calm     71 % 0.00 in
01:29 55.2 °F 46.0 °F 30.00 in Calm   1.0 mph 71 % 0.00 in
01:34 55.4 °F 46.2 °F 30.00 in Calm   1.0 mph 71 % 0.00 in
01:39 55.2 °F 46.4 °F 30.00 in Calm   1.0 mph 72 % 0.00 in
01:44 55.2 °F 46.4 °F 30.00 in SSE 1.0 mph 1.0 mph 72 % 0.00 in
01:49 55.2 °F 46.4 °F 30.00 in Calm   1.0 mph 72 % 0.00 in
01:54 55.2 °F 46.8 °F 30.00 in Calm   2.0 mph 73 % 0.00 in
01:59 55.4 °F 46.9 °F 30.00 in Calm   2.0 mph 73 % 0.00 in
02:04 55.6 °F 47.1 °F 29.99 in Calm   2.0 mph 73 % 0.00 in
02:09 55.4 °F 46.9 °F 29.99 in Calm   1.0 mph 73 % 0.00 in
02:14 55.2 °F 46.8 °F 29.99 in Calm   1.0 mph 73 % 0.00 in
02:19 55.0 °F 46.9 °F 29.99 in Calm   1.0 mph 74 % 0.00 in
02:24 54.7 °F 46.6 °F 29.99 in Calm     74 % 0.00 in
02:29 54.1 °F 46.4 °F 29.99 in Calm     75 % 0.00 in
02:34 53.8 °F 46.4 °F 29.99 in Calm     76 % 0.00 in
02:39 53.4 °F 46.4 °F 29.99 in Calm     77 % 0.00 in
02:44 53.1 °F 46.4 °F 29.99 in Calm     78 % 0.00 in
02:49 52.9 °F 46.6 °F 29.99 in Calm     79 % 0.00 in
02:54 52.5 °F 46.6 °F 29.99 in Calm     80 % 0.00 in
02:59 52.5 °F 46.9 °F 29.99 in Calm     81 % 0.00 in
03:04 52.3 °F 46.8 °F 29.99 in Calm     81 % 0.00 in
03:09 52.3 °F 46.9 °F 29.99 in Calm     82 % 0.00 in
03:14 52.2 °F 47.1 °F 29.99 in Calm     83 % 0.00 in
03:19 52.0 °F 46.9 °F 29.99 in Calm     83 % 0.00 in
03:24 51.6 °F 46.6 °F 29.99 in Calm     83 % 0.00 in
03:29 51.4 °F 46.8 °F 29.99 in Calm     84 % 0.00 in
03:34 51.3 °F 46.9 °F 29.98 in Calm     85 % 0.00 in
03:39 51.3 °F 47.3 °F 29.98 in Calm     86 % 0.00 in
03:44 51.3 °F 47.3 °F 29.98 in Calm     86 % 0.00 in
03:49 51.1 °F 46.8 °F 29.98 in Calm     85 % 0.00 in
03:54 50.7 °F 46.8 °F 29.98 in Calm     86 % 0.00 in
03:59 50.5 °F 47.1 °F 29.98 in Calm     88 % 0.00 in
04:04 50.5 °F 46.8 °F 29.98 in Calm     87 % 0.00 in
04:09 50.2 °F 46.4 °F 29.98 in Calm     87 % 0.00 in
04:14 49.6 °F 45.9 °F 29.98 in Calm     87 % 0.00 in
04:19 49.5 °F 46.0 °F 29.98 in Calm     88 % 0.00 in
04:24 49.6 °F 46.8 °F 29.98 in Calm     90 % 0.00 in
04:29 49.6 °F 46.6 °F 29.98 in Calm     89 % 0.00 in
04:34 49.8 °F 46.9 °F 29.98 in Calm     90 % 0.00 in
04:39 49.6 °F 46.8 °F 29.98 in Calm     90 % 0.00 in
04:44 49.3 °F 46.2 °F 29.98 in Calm     89 % 0.00 in
04:49 48.9 °F 45.9 °F 29.98 in Calm     89 % 0.00 in
04:54 48.6 °F 45.7 °F 29.98 in Calm     90 % 0.00 in
04:59 48.4 °F 45.5 °F 29.97 in Calm     90 % 0.00 in
05:04 48.4 °F 46.2 °F 29.97 in Calm     92 % 0.00 in
05:09 48.7 °F 46.8 °F 29.97 in Calm     93 % 0.00 in
05:14 48.9 °F 46.9 °F 29.97 in Calm     93 % 0.00 in
05:19 49.5 °F 47.5 °F 29.97 in Calm     93 % 0.00 in
05:24 49.6 °F 47.5 °F 29.97 in Calm     92 % 0.00 in
05:29 49.6 °F 47.5 °F 29.97 in Calm     92 % 0.00 in
05:34 49.6 °F 47.5 °F 29.97 in Calm     92 % 0.00 in
05:39 49.6 °F 47.5 °F 29.97 in Calm     92 % 0.00 in
05:44 49.6 °F 47.5 °F 29.97 in Calm     92 % 0.00 in
05:49 49.8 °F 47.7 °F 29.97 in Calm     92 % 0.00 in
05:54 49.8 °F 47.7 °F 29.98 in Calm     92 % 0.00 in
05:59 49.8 °F 47.7 °F 29.98 in Calm     92 % 0.00 in
06:04 49.8 °F 47.7 °F 29.98 in Calm     92 % 0.00 in
06:09 49.8 °F 47.7 °F 29.98 in Calm     92 % 0.00 in
06:14 50.0 °F 47.8 °F 29.98 in Calm     92 % 0.00 in
06:19 50.2 °F 48.0 °F 29.98 in Calm     92 % 0.00 in
06:24 50.0 °F 47.8 °F 29.98 in Calm     92 % 0.00 in
06:29 49.8 °F 47.3 °F 29.98 in Calm     91 % 0.00 in
06:34 49.6 °F 47.1 °F 29.98 in Calm     91 % 0.00 in
06:39 49.3 °F 46.8 °F 29.98 in Calm     91 % 0.00 in
06:44 48.9 °F 46.4 °F 29.98 in Calm     91 % 0.00 in
06:49 48.6 °F 46.4 °F 29.98 in Calm     92 % 0.00 in
06:54 48.6 °F 46.4 °F 29.98 in Calm     92 % 0.00 in
06:59 48.4 °F 46.2 °F 29.98 in Calm     92 % 0.00 in
07:04 48.0 °F 45.9 °F 29.98 in Calm     92 % 0.00 in
07:09 48.0 °F 46.0 °F 29.98 in Calm     93 % 0.00 in
07:14 48.0 °F 46.4 °F 29.98 in Calm     94 % 0.00 in
07:19 48.0 °F 46.4 °F 29.98 in Calm     94 % 0.00 in
07:24 48.2 °F 46.8 °F 29.98 in Calm     95 % 0.00 in
07:29 48.6 °F 47.1 °F 29.98 in Calm     95 % 0.00 in
07:34 48.7 °F 47.1 °F 29.98 in Calm     94 % 0.00 in
07:39 48.7 °F 47.1 °F 29.98 in Calm     94 % 0.00 in
07:44 49.1 °F 47.7 °F 29.98 in Calm     95 % 0.00 in
07:49 49.5 °F 48.0 °F 29.98 in Calm     95 % 0.00 in
07:54 49.8 °F 48.2 °F 29.99 in Calm     94 % 0.00 in
07:59 49.6 °F 48.0 °F 29.99 in Calm     94 % 0.00 in
08:04 49.6 °F 48.0 °F 29.99 in Calm     94 % 0.00 in
08:06 49.6 °F 48.0 °F 29.99 in Calm     94 % 0.00 in
08:11 50.2 °F 48.6 °F 29.99 in Calm     94 % 0.00 in
08:16 50.5 °F 49.1 °F 29.99 in Calm     95 % 0.00 in
08:21 51.4 °F 50.4 °F 29.99 in Calm     96 % 0.00 in
08:26 52.3 °F 51.3 °F 29.99 in SE 1.0 mph 1.0 mph 96 % 0.00 in
08:31 53.8 °F 52.7 °F 29.99 in Calm   1.0 mph 96 % 0.00 in
08:36 55.2 °F 53.8 °F 29.99 in Calm   1.0 mph 95 % 0.00 in
08:41 56.7 °F 54.7 °F 29.99 in South 1.0 mph 1.0 mph 93 % 0.00 in
08:46 58.1 °F 55.2 °F 29.99 in South 1.0 mph 2.0 mph 90 % 0.00 in
08:51 59.4 °F 54.9 °F 29.99 in Calm   2.0 mph 85 % 0.00 in
08:56 60.6 °F 55.4 °F 29.99 in South 1.0 mph 2.0 mph 83 % 0.00 in
09:01 61.9 °F 55.6 °F 29.99 in South 3.0 mph 3.0 mph 80 % 0.00 in
09:06 62.8 °F 55.8 °F 29.99 in Calm   3.0 mph 78 % 0.00 in
09:11 63.7 °F 55.2 °F 29.99 in South 3.0 mph 4.0 mph 74 % 0.00 in
09:16 64.2 °F 54.7 °F 29.99 in South 2.0 mph 4.0 mph 71 % 0.00 in
09:21 64.9 °F 54.9 °F 29.99 in SSW 1.0 mph 5.0 mph 70 % 0.00 in
09:26 65.8 °F 56.1 °F 29.99 in Calm   5.0 mph 71 % 0.00 in
09:31 66.6 °F 54.9 °F 29.99 in SW 2.0 mph 6.0 mph 66 % 0.00 in
09:36 67.3 °F 54.7 °F 29.99 in South 5.0 mph 8.0 mph 64 % 0.00 in
09:41 67.8 °F 54.3 °F 29.99 in SSW 5.0 mph 8.0 mph 62 % 0.00 in
09:46 68.4 °F 54.3 °F 29.99 in South 4.0 mph 8.0 mph 61 % 0.00 in
09:51 68.7 °F 53.8 °F 29.99 in SSW 5.0 mph 8.0 mph 59 % 0.00 in
09:56 69.3 °F 52.9 °F 29.99 in WSW 1.0 mph 8.0 mph 56 % 0.00 in
10:01 69.4 °F 52.5 °F 29.98 in SSW 5.0 mph 11.0 mph 55 % 0.00 in
10:06 70.0 °F 52.5 °F 29.98 in SW 9.0 mph 11.0 mph 54 % 0.00 in
10:11 70.2 °F 52.7 °F 29.98 in SW 1.0 mph 12.0 mph 54 % 0.00 in
10:16 70.7 °F 52.2 °F 29.98 in SE 4.0 mph 12.0 mph 52 % 0.00 in
10:21 71.1 °F 52.0 °F 29.97 in SSW 2.0 mph 12.0 mph 51 % 0.00 in
10:26 71.8 °F 53.2 °F 29.97 in West 1.0 mph 10.0 mph 52 % 0.00 in
10:31 72.7 °F 53.4 °F 29.97 in WSW 2.0 mph 10.0 mph 51 % 0.00 in
10:36 73.2 °F 52.9 °F 29.97 in Calm   8.0 mph 49 % 0.00 in
10:41 74.1 °F 52.5 °F 29.97 in SW 2.0 mph 8.0 mph 47 % 0.00 in
10:46 74.7 °F 52.0 °F 29.97 in SW 3.0 mph 8.0 mph 45 % 0.00 in
10:51 74.8 °F 51.4 °F 29.96 in SW 5.0 mph 8.0 mph 44 % 0.00 in
10:56 74.8 °F 52.2 °F 29.96 in South 5.0 mph 10.0 mph 45 % 0.00 in
11:01 75.2 °F 52.3 °F 29.96 in SSW 4.0 mph 10.0 mph 45 % 0.00 in
11:06 75.6 °F 52.2 °F 29.96 in West 1.0 mph 10.0 mph 44 % 0.00 in
11:11 75.9 °F 52.5 °F 29.96 in South 1.0 mph 10.0 mph 44 % 0.00 in
11:16 76.3 °F 52.7 °F 29.96 in NW 2.0 mph 10.0 mph 44 % 0.00 in
11:21 76.6 °F 53.1 °F 29.95 in South 6.0 mph 9.0 mph 44 % 0.00 in
11:26 76.6 °F 53.1 °F 29.95 in SSE 5.0 mph 12.0 mph 44 % 0.00 in
11:31 76.8 °F 52.7 °F 29.95 in SW 4.0 mph 12.0 mph 43 % 0.00 in
11:36 77.4 °F 52.5 °F 29.95 in South 2.0 mph 12.0 mph 42 % 0.00 in
11:41 77.2 °F 52.9 °F 29.94 in South 2.0 mph 13.0 mph 43 % 0.00 in
11:46 77.9 °F 53.6 °F 29.94 in West 2.0 mph 13.0 mph 43 % 0.00 in
11:51 78.4 °F 53.4 °F 29.94 in WSW 2.0 mph 14.0 mph 42 % 0.00 in
11:56 78.8 °F 53.8 °F 29.94 in SSW 4.0 mph 14.0 mph 42 % 0.00 in
12:01 79.0 °F 54.0 °F 29.94 in SSW 4.0 mph 14.0 mph 42 % 0.00 in
12:06 79.0 °F 54.0 °F 29.94 in SSE 5.0 mph 16.0 mph 42 % 0.00 in
12:11 78.6 °F 54.3 °F 29.94 in SSE 4.0 mph 16.0 mph 43 % 0.00 in
12:16 78.6 °F 54.9 °F 29.93 in SSE 5.0 mph 16.0 mph 44 % 0.00 in
12:21 79.3 °F 54.9 °F 29.93 in South 6.0 mph 16.0 mph 43 % 0.00 in
12:26 79.2 °F 54.1 °F 29.92 in SSW 4.0 mph 16.0 mph 42 % 0.00 in
12:31 79.2 °F 55.4 °F 29.92 in SSE 4.0 mph 14.0 mph 44 % 0.00 in
12:36 79.9 °F 54.7 °F 29.91 in SSW 6.0 mph 14.0 mph 42 % 0.00 in
12:41 79.9 °F 55.4 °F 29.91 in SSW 8.0 mph 14.0 mph 43 % 0.00 in
12:46 80.1 °F 54.9 °F 29.91 in East 10.0 mph 14.0 mph 42 % 0.00 in
12:51 79.7 °F 55.2 °F 29.90 in SSW 5.0 mph 17.0 mph 43 % 0.00 in
12:56 79.7 °F 55.2 °F 29.90 in SSE 9.0 mph 17.0 mph 43 % 0.00 in
13:01 79.9 °F 54.7 °F 29.89 in SSE 11.0 mph 17.0 mph 42 % 0.00 in
13:06 79.7 °F 54.0 °F 29.89 in SSE 11.0 mph 14.0 mph 41 % 0.00 in
13:11 79.7 °F 54.5 °F 29.89 in South 9.0 mph 20.0 mph 42 % 0.00 in
13:16 79.9 °F 54.1 °F 29.88 in South 6.0 mph 20.0 mph 41 % 0.00 in
13:21 80.4 °F 55.2 °F 29.88 in SSE 6.0 mph 20.0 mph 42 % 0.00 in
13:26 80.6 °F 54.7 °F 29.87 in South 10.0 mph 15.0 mph 41 % 0.00 in
13:31 80.8 °F 55.6 °F 29.87 in SSE 8.0 mph 14.0 mph 42 % 0.00 in
13:36 80.6 °F 53.4 °F 29.87 in South 8.0 mph 15.0 mph 39 % 0.00 in
13:41 80.2 °F 54.3 °F 29.86 in SE 6.0 mph 15.0 mph 41 % 0.00 in
13:46 80.6 °F 55.4 °F 29.86 in SSE 8.0 mph 15.0 mph 42 % 0.00 in
13:51 81.1 °F 55.2 °F 29.86 in South 10.0 mph 15.0 mph 41 % 0.00 in
13:56 81.1 °F 55.2 °F 29.85 in South 8.0 mph 15.0 mph 41 % 0.00 in
14:06 81.3 °F 54.7 °F 29.84 in SE 14.0 mph 15.0 mph 40 % 0.00 in
14:11 81.3 °F 55.4 °F 29.84 in SSE 12.0 mph 15.0 mph 41 % 0.00 in
14:16 81.3 °F 55.4 °F 29.84 in East 6.0 mph 15.0 mph 41 % 0.00 in
14:21 81.1 °F 55.2 °F 29.84 in SSE 7.0 mph 17.0 mph 41 % 0.00 in
14:26 81.1 °F 55.2 °F 29.83 in SE 8.0 mph 17.0 mph 41 % 0.00 in
14:31 81.1 °F 56.5 °F 29.83 in SSE 4.0 mph 17.0 mph 43 % 0.00 in
14:36 81.3 °F 56.1 °F 29.83 in SSW 7.0 mph 16.0 mph 42 % 0.00 in
14:41 81.3 °F 56.7 °F 29.83 in SE 4.0 mph 16.0 mph 43 % 0.00 in
14:46 81.9 °F 56.5 °F 29.83 in SSE 6.0 mph 14.0 mph 42 % 0.00 in
14:51 81.9 °F 55.9 °F 29.83 in SSW 10.0 mph 14.0 mph 41 % 0.00 in
14:56 81.9 °F 57.2 °F 29.83 in SSW 8.0 mph 12.0 mph 43 % 0.00 in
15:01 82.2 °F 56.8 °F 29.83 in South 5.0 mph 15.0 mph 42 % 0.00 in
15:06 82.0 °F 56.7 °F 29.82 in SSE 6.0 mph 15.0 mph 42 % 0.00 in
15:11 81.9 °F 57.2 °F 29.82 in SSW 6.0 mph 15.0 mph 43 % 0.00 in
15:16 81.9 °F 56.5 °F 29.82 in South 8.0 mph 15.0 mph 42 % 0.00 in
15:21 82.0 °F 57.4 °F 29.82 in South 9.0 mph 15.0 mph 43 % 0.00 in
15:26 82.0 °F 58.6 °F 29.81 in SE 10.0 mph 15.0 mph 45 % 0.00 in
15:31 82.0 °F 57.9 °F 29.81 in SSW 6.0 mph 16.0 mph 44 % 0.00 in
15:36 82.0 °F 58.6 °F 29.81 in SSE 6.0 mph 16.0 mph 45 % 0.00 in
15:41 82.0 °F 57.9 °F 29.81 in SE 8.0 mph 16.0 mph 44 % 0.00 in
15:46 82.2 °F 58.8 °F 29.81 in SSW 8.0 mph 12.0 mph 45 % 0.00 in
15:51 82.2 °F 59.4 °F 29.80 in SSE 6.0 mph 16.0 mph 46 % 0.00 in
15:56 82.2 °F 58.8 °F 29.80 in SE 6.0 mph 16.0 mph 45 % 0.00 in
16:01 82.4 °F 57.0 °F 29.80 in South 9.0 mph 16.0 mph 42 % 0.00 in
16:06 82.4 °F 57.0 °F 29.80 in SSE 13.0 mph 15.0 mph 42 % 0.00 in
16:11 82.2 °F 56.8 °F 29.80 in SSW 7.0 mph 15.0 mph 42 % 0.00 in
16:16 82.2 °F 56.1 °F 29.80 in SE 10.0 mph 16.0 mph 41 % 0.00 in
16:21 82.0 °F 56.7 °F 29.80 in South 8.0 mph 16.0 mph 42 % 0.00 in
16:26 82.0 °F 55.9 °F 29.80 in SSE 7.0 mph 19.0 mph 41 % 0.00 in
16:31 81.9 °F 55.9 °F 29.80 in ESE 8.0 mph 19.0 mph 41 % 0.00 in
16:36 81.9 °F 56.5 °F 29.80 in East 9.0 mph 19.0 mph 42 % 0.00 in
16:41 81.7 °F 56.3 °F 29.80 in South 6.0 mph 17.0 mph 42 % 0.00 in
16:46 81.7 °F 56.3 °F 29.79 in SSW 12.0 mph 17.0 mph 42 % 0.00 in
16:51 81.5 °F 56.8 °F 29.80 in SE 8.0 mph 16.0 mph 43 % 0.00 in
16:56 81.1 °F 55.9 °F 29.80 in SSW 10.0 mph 17.0 mph 42 % 0.00 in
17:01 81.1 °F 57.2 °F 29.80 in SSW 11.0 mph 17.0 mph 44 % 0.00 in
17:06 81.0 °F 57.0 °F 29.80 in SSE 6.0 mph 19.0 mph 44 % 0.00 in
17:11 80.6 °F 56.7 °F 29.80 in SSE 9.0 mph 19.0 mph 44 % 0.00 in
17:16 80.4 °F 57.2 °F 29.80 in SSW 8.0 mph 19.0 mph 45 % 0.00 in
17:21 80.2 °F 57.6 °F 29.80 in SSW 4.0 mph 17.0 mph 46 % 0.00 in
17:26 80.1 °F 57.4 °F 29.80 in SE 8.0 mph 16.0 mph 46 % 0.00 in
17:31 79.9 °F 57.2 °F 29.80 in ESE 5.0 mph 16.0 mph 46 % 0.00 in
17:36 79.5 °F 56.3 °F 29.80 in SE 6.0 mph 14.0 mph 45 % 0.00 in
17:41 79.3 °F 56.8 °F 29.80 in SSW 7.0 mph 14.0 mph 46 % 0.00 in
17:46 79.0 °F 56.5 °F 29.80 in SE 6.0 mph 14.0 mph 46 % 0.00 in
17:51 79.0 °F 56.5 °F 29.80 in South 4.0 mph 13.0 mph 46 % 0.00 in
17:56 78.6 °F 56.7 °F 29.80 in SSE 6.0 mph 13.0 mph 47 % 0.00 in
18:01 78.4 °F 57.2 °F 29.80 in South 4.0 mph 13.0 mph 48 % 0.00 in
18:06 78.1 °F 56.8 °F 29.80 in SSW 6.0 mph 12.0 mph 48 % 0.00 in
18:11 77.7 °F 57.0 °F 29.80 in SSE 5.0 mph 12.0 mph 49 % 0.00 in
18:16 77.5 °F 56.8 °F 29.80 in SE 6.0 mph 14.0 mph 49 % 0.00 in
18:21 77.2 °F 57.0 °F 29.80 in SSE 4.0 mph 14.0 mph 50 % 0.00 in
18:26 76.8 °F 57.4 °F 29.80 in South 4.0 mph 14.0 mph 51 % 0.00 in
18:31 76.5 °F 57.0 °F 29.80 in SSW 5.0 mph 11.0 mph 51 % 0.00 in
18:36 76.3 °F 56.8 °F 29.80 in South 3.0 mph 10.0 mph 51 % 0.00 in
18:41 75.9 °F 57.0 °F 29.80 in SE 6.0 mph 10.0 mph 52 % 0.00 in
18:46 75.7 °F 56.8 °F 29.81 in SE 7.0 mph 10.0 mph 52 % 0.00 in
18:51 75.4 °F 56.5 °F 29.81 in SE 4.0 mph 9.0 mph 52 % 0.00 in
18:56 75.4 °F 57.0 °F 29.81 in SSE 3.0 mph 9.0 mph 53 % 0.00 in
19:01 75.0 °F 57.2 °F 29.80 in SSE 3.0 mph 9.0 mph 54 % 0.00 in
19:06 74.8 °F 57.0 °F 29.81 in SE 4.0 mph 8.0 mph 54 % 0.00 in
19:11 74.7 °F 57.4 °F 29.81 in ESE 4.0 mph 8.0 mph 55 % 0.00 in
19:16 74.5 °F 57.7 °F 29.82 in South 5.0 mph 8.0 mph 56 % 0.00 in
19:21 74.3 °F 57.6 °F 29.82 in SSE 3.0 mph 8.0 mph 56 % 0.00 in
19:26 73.9 °F 57.7 °F 29.82 in SSE 4.0 mph 8.0 mph 57 % 0.00 in
19:31 73.8 °F 57.6 °F 29.82 in ESE 4.0 mph 8.0 mph 57 % 0.00 in
19:36 73.6 °F 57.4 °F 29.82 in SE 2.0 mph 8.0 mph 57 % 0.00 in
19:41 73.2 °F 57.6 °F 29.82 in SW 6.0 mph 8.0 mph 58 % 0.00 in
19:46 73.2 °F 57.6 °F 29.82 in East 2.0 mph 8.0 mph 58 % 0.00 in
19:51 72.9 °F 57.7 °F 29.82 in SSE 4.0 mph 8.0 mph 59 % 0.00 in
19:56 72.7 °F 57.6 °F 29.82 in South 5.0 mph 8.0 mph 59 % 0.00 in
20:01 72.7 °F 57.6 °F 29.82 in SSE 5.0 mph 8.0 mph 59 % 0.00 in
20:06 72.5 °F 57.7 °F 29.82 in South 6.0 mph 9.0 mph 60 % 0.00 in
20:11 72.3 °F 57.7 °F 29.82 in SSW 5.0 mph 9.0 mph 60 % 0.00 in
20:16 72.1 °F 57.9 °F 29.82 in South 5.0 mph 9.0 mph 61 % 0.00 in
20:21 72.0 °F 57.7 °F 29.83 in SE 5.0 mph 8.0 mph 61 % 0.00 in
20:26 72.0 °F 57.7 °F 29.83 in SSE 3.0 mph 8.0 mph 61 % 0.00 in
20:31 71.8 °F 58.1 °F 29.83 in South 4.0 mph 8.0 mph 62 % 0.00 in
20:36 71.8 °F 58.1 °F 29.83 in South 3.0 mph 8.0 mph 62 % 0.00 in
20:41 71.6 °F 57.9 °F 29.83 in South 1.0 mph 7.0 mph 62 % 0.00 in
20:46 71.4 °F 58.1 °F 29.83 in SE 3.0 mph 7.0 mph 63 % 0.00 in
20:51 71.2 °F 57.9 °F 29.83 in South 2.0 mph 7.0 mph 63 % 0.00 in
20:56 71.1 °F 58.3 °F 29.83 in South 2.0 mph 6.0 mph 64 % 0.00 in
21:01 70.9 °F 58.5 °F 29.83 in SSE 3.0 mph 5.0 mph 65 % 0.00 in
21:06 70.9 °F 58.5 °F 29.83 in ESE 6.0 mph 8.0 mph 65 % 0.00 in
21:11 70.5 °F 58.1 °F 29.83 in SE 3.0 mph 8.0 mph 65 % 0.00 in
21:16 70.5 °F 58.6 °F 29.83 in South 2.0 mph 8.0 mph 66 % 0.00 in
21:21 70.3 °F 58.5 °F 29.83 in SSE 3.0 mph 7.0 mph 66 % 0.00 in
21:26 70.3 °F 58.5 °F 29.83 in SE 2.0 mph 7.0 mph 66 % 0.00 in
21:31 70.3 °F 58.8 °F 29.83 in SE 3.0 mph 8.0 mph 67 % 0.00 in
21:36 70.3 °F 58.8 °F 29.82 in SE 2.0 mph 8.0 mph 67 % 0.00 in
21:41 70.2 °F 58.6 °F 29.83 in SE 4.0 mph 8.0 mph 67 % 0.00 in
21:46 70.0 °F 59.0 °F 29.82 in ESE 6.0 mph 7.0 mph 68 % 0.00 in
21:51 69.8 °F 58.8 °F 29.83 in SSE 4.0 mph 7.0 mph 68 % 0.00 in
21:56 69.6 °F 58.6 °F 29.83 in SSE 3.0 mph 6.0 mph 68 % 0.00 in
22:01 69.4 °F 58.8 °F 29.83 in South 2.0 mph 6.0 mph 69 % 0.00 in
22:06 69.3 °F 58.6 °F 29.83 in South 1.0 mph 6.0 mph 69 % 0.00 in
22:11 69.1 °F 58.8 °F 29.83 in SE 2.0 mph 5.0 mph 70 % 0.00 in
22:21 68.4 °F 58.6 °F 29.83 in Calm   5.0 mph 71 % 0.00 in
22:26 68.0 °F 58.3 °F 29.83 in SSE 1.0 mph 2.0 mph 71 % 0.00 in
22:31 67.6 °F 58.6 °F 29.83 in SSE 1.0 mph 3.0 mph 73 % 0.00 in
22:36 67.3 °F 58.6 °F 29.83 in Calm   3.0 mph 74 % 0.00 in
22:41 67.1 °F 58.5 °F 29.83 in Calm   3.0 mph 74 % 0.00 in
22:46 66.9 °F 58.3 °F 29.83 in Calm   2.0 mph 74 % 0.00 in
22:51 66.7 °F 58.6 °F 29.83 in Calm   2.0 mph 75 % 0.00 in
22:56 66.4 °F 58.6 °F 29.83 in Calm   1.0 mph 76 % 0.00 in
23:01 66.0 °F 58.3 °F 29.83 in Calm   1.0 mph 76 % 0.00 in
23:06 65.7 °F 58.3 °F 29.83 in Calm   1.0 mph 77 % 0.00 in
23:11 65.7 °F 58.6 °F 29.83 in Calm   1.0 mph 78 % 0.00 in
23:16 65.5 °F 58.5 °F 29.83 in Calm   1.0 mph 78 % 0.00 in
23:21 65.3 °F 58.3 °F 29.83 in Calm   1.0 mph 78 % 0.00 in
23:26 65.1 °F 58.5 °F 29.83 in Calm   1.0 mph 79 % 0.00 in
23:31 65.1 °F 58.5 °F 29.83 in South 2.0 mph 2.0 mph 79 % 0.00 in
23:36 65.1 °F 58.5 °F 29.83 in SSW 1.0 mph 2.0 mph 79 % 0.00 in
23:41 65.3 °F 58.6 °F 29.83 in SSE 1.0 mph 2.0 mph 79 % 0.00 in
23:46 65.3 °F 58.6 °F 29.83 in SE 1.0 mph 2.0 mph 79 % 0.00 in
23:51 65.5 °F 59.2 °F 29.83 in ESE 1.0 mph 2.0 mph 80 % 0.00 in
23:56 65.3 °F 59.0 °F 29.83 in Calm   2.0 mph 80 % 0.00 in
Spring, Texas: Villages of Bridgestone
Compliments of Weather Underground - 2.75 mb

Script developed by  Jim McMurry - jmcmurry@mwt.net Adapted for the template by  Wim van der Kuil - Leuven-Template.eu

You find our weather info also at:

UK Metoffice

WeatherCloud

Weather Underground

Mid-South Weather Network

AWEKAS

Citizen Weather Observer Program (CWOP)

HAMweather, WeatherForYou, PWS Weather

Equipment we use:

Weather-station
Davis Vantage Vue

Weather-program
Meteohub

Weather-server
Debian 7.9 x86 (Guest)

Provider
DreamHost

Davis Vantage Vue

Meteohub

Debian 7.9 x86 (Guest)

DreamHost